sat.trackr.live / text

‹ back to catalog

STARLINK-36760

NORAD 68956 · 2026-099F

PAYLOAD ACTIVE UNKNOWN

§ Identity

Operator
Country
US
Launch date
2026-05-01
Launch site
AFETR
Launch vehicle
Mass (kg)
RCS (m²)

Purposes: comms

External: N2YO · Heavens-Above · Gunter

§ Orbital elements

Epoch: 2026-05-25T04:00:03.998880Z

Period
92.00 min
Inclination
53.1591°
Eccentricity
0.0000925
Mean motion
15.65265716 rev/d
Perigee alt
371.9 km
Apogee alt
373.1 km
Semi-major
6,750.6 km
B*
-2.1198e-2
RAAN
270.1082°
Arg perigee
83.4137°
Mean anomaly
191.9738°
Rev number
501

§ Raw data

STARLINK-367601 68956U 26099F   26145.16671295 -.01899195  00000+0 -21198-1 0  99902 68956  53.1591 270.1082 0000925  83.4137 191.9738 15.65265716  5010

JSON: /api/v1/satellites/68956 · /tle

For live sub-satellite position, see the globe view (requires WebGL).

§ Visibility from observer

Set your observer location to see the next 7 days of passes ≥ 10°. The values pass through the URL so the page stays shareable.

No JS? Fill the form by hand. The geolocation button needs JavaScript.